When you browse on this site, cookies collect data to enhance your experience and personalize the content and advertising you see.
Visit our Privacy Policy to learn more. By continuing to use the site, you agree to this use of cookies and data.
  • In Hungary
  • List of Countries
  • For 7 days
  • Water Temperature
  • Satellite Maps
  • Weather Map
  • News
  • Weather Widgets
  • user-avatar
    Login

    Hourly Weather Muszynka

    Today, 19 December, Wednesday

    Time Temperature Precipitation Wind Pressure Humidity
    00:00 -6°C° 0 mm 1 mps 712 mmHg 93%
    01:00 -6°C° 0 mm 1 mps 712 mmHg 93%
    02:00 -7°C° 0 mm 1 mps 712 mmHg 92%
    03:00 -7°C° 0 mm 1 mps 712 mmHg 92%
    04:00 -7°C° 0 mm 1 mps 712 mmHg 91%
    05:00 -7°C° 0 mm 1 mps 712 mmHg 91%
    06:00 -7°C° 0 mm 1 mps 712 mmHg 90%
    07:00 -7°C° 0 mm 1 mps 712 mmHg 89%
    08:00 -7°C° 0 mm 2 mps 712 mmHg 86%
    09:00 -6°C° 0 mm 2 mps 712 mmHg 83%
    10:00 -5°C° 0 mm 2 mps 712 mmHg 80%
    11:00 -4°C° 0 mm 2 mps 711 mmHg 79%
    12:00 -4°C° 0 mm 2 mps 711 mmHg 78%
    13:00 -3°C° 0 mm 2 mps 711 mmHg 78%
    14:00 -4°C° 0 mm 2 mps 711 mmHg 82%
    15:00 -5°C° 0 mm 2 mps 710 mmHg 86%
    16:00 -6°C° 0 mm 2 mps 710 mmHg 90%
    17:00 -7°C° 0 mm 3 mps 710 mmHg 90%
    18:00 -8°C° 0 mm 3 mps 710 mmHg 90%
    19:00 -8°C° 0 mm 3 mps 709 mmHg 90%
    20:00 -8°C° 0 mm 3 mps 709 mmHg 90%
    21:00 -8°C° 0 mm 3 mps 709 mmHg 89%
    22:00 -8°C° 0 mm 3 mps 709 mmHg 89%
    23:00 -8°C° 0 mm 3 mps 709 mmHg 88%

    Tomorrow, 20 December, Thursday

    Time Temperature Precipitation Wind Pressure Humidity
    00:00 -8°C° 0 mm 3 mps 709 mmHg 87%
    01:00 -8°C° 0 mm 3 mps 708 mmHg 87%
    02:00 -8°C° 0 mm 3 mps 708 mmHg 86%
    03:00 -8°C° 0 mm 3 mps 708 mmHg 85%
    04:00 -7°C° 0 mm 3 mps 708 mmHg 84%
    05:00 -7°C° 0 mm 3 mps 708 mmHg 84%
    06:00 -7°C° 0 mm 3 mps 708 mmHg 84%
    07:00 -7°C° 0 mm 3 mps 708 mmHg 84%
    08:00 -6°C° 0 mm 3 mps 708 mmHg 84%
    09:00 -6°C° 0 mm 3 mps 708 mmHg 84%
    10:00 -5°C° 0 mm 3 mps 708 mmHg 83%
    11:00 -5°C° 0.1 mm 3 mps 708 mmHg 83%
    12:00 -5°C° 0.1 mm 3 mps 708 mmHg 83%
    13:00 -4°C° 0.1 mm 3 mps 708 mmHg 83%
    14:00 -5°C° 0 mm 3 mps 708 mmHg 85%
    15:00 -5°C° 0 mm 3 mps 708 mmHg 87%
    16:00 -5°C° 0 mm 2 mps 708 mmHg 90%
    17:00 -5°C° 0 mm 2 mps 708 mmHg 90%
    18:00 -5°C° 0 mm 2 mps 708 mmHg 91%
    19:00 -5°C° 0 mm 2 mps 708 mmHg 91%
    20:00 -5°C° 0 mm 2 mps 708 mmHg 91%
    21:00 -5°C° 0 mm 2 mps 708 mmHg 92%
    22:00 -5°C° 0 mm 2 mps 708 mmHg 92%
    23:00 -5°C° 0.1 mm 2 mps 708 mmHg 92%

    Day after tomorrow, 21 December, Friday

    Time Temperature Precipitation Wind Pressure Humidity
    00:00 -5°C° 0.1 mm 2 mps 708 mmHg 92%
    01:00 -5°C° 0.1 mm 2 mps 708 mmHg 92%
    02:00 -5°C° 0.1 mm 2 mps 708 mmHg 92%
    03:00 -5°C° 0.1 mm 2 mps 708 mmHg 92%
    04:00 -6°C° 0.1 mm 3 mps 708 mmHg 93%
    05:00 -6°C° 0 mm 3 mps 708 mmHg 93%
    06:00 -6°C° 0 mm 3 mps 708 mmHg 93%
    07:00 -6°C° 0 mm 3 mps 708 mmHg 92%
    08:00 -5°C° 0 mm 3 mps 708 mmHg 91%
    09:00 -4°C° 0 mm 3 mps 708 mmHg 89%
    10:00 -4°C° 0 mm 4 mps 707 mmHg 88%
    11:00 -3°C° 0.2 mm 4 mps 707 mmHg 87%
    12:00 -3°C° 0.2 mm 4 mps 707 mmHg 86%
    13:00 -2°C° 0.2 mm 4 mps 706 mmHg 85%
    14:00 -2°C° 0.1 mm 4 mps 706 mmHg 86%
    15:00 -4°C° 0.1 mm 5 mps 705 mmHg 86%
    16:00 -4°C° 0.1 mm 5 mps 705 mmHg 87%
    17:00 -4°C° 0.2 mm 5 mps 704 mmHg 87%
    18:00 -4°C° 0.2 mm 5 mps 704 mmHg 87%
    19:00 -4°C° 0.2 mm 6 mps 703 mmHg 87%
    20:00 -4°C° 0.2 mm 5 mps 703 mmHg 87%
    21:00 -4°C° 0.2 mm 5 mps 702 mmHg 88%
    22:00 -2°C° 0.2 mm 5 mps 701 mmHg 88%
    23:00 -2°C° 0.3 mm 5 mps 701 mmHg 88%

    22 December, Saturday

    Time Temperature Precipitation Wind Pressure Humidity
    00:00 -2°C° 0.3 mm 4 mps 701 mmHg 89%
    01:00 -2°C° 0.3 mm 4 mps 701 mmHg 90%
    02:00 -1°C° 0.6 mm 4 mps 700 mmHg 90%
    03:00 -1°C° 0.6 mm 4 mps 700 mmHg 90%
    04:00 -1°C° 0.6 mm 4 mps 700 mmHg 91%
    05:00 -1°C° 0 mm 4 mps 700 mmHg 91%
    06:00 0°C° 0 mm 3 mps 700 mmHg 92%
    07:00 0°C° 0 mm 3 mps 700 mmHg 93%
    08:00 0°C° 0 mm 3 mps 700 mmHg 93%
    09:00 +1°C° 0 mm 3 mps 700 mmHg 93%
    10:00 +1°C° 0 mm 3 mps 700 mmHg 93%
    11:00 +1°C° 0.1 mm 3 mps 700 mmHg 93%
    12:00 +1°C° 0.1 mm 3 mps 700 mmHg 93%
    13:00 +2°C° 0.1 mm 3 mps 700 mmHg 94%
    14:00 +2°C° 0.3 mm 3 mps 699 mmHg 93%
    15:00 +1°C° 0.3 mm 3 mps 699 mmHg 92%
    16:00 +1°C° 0.3 mm 3 mps 699 mmHg 92%
    17:00 +1°C° 0.1 mm 3 mps 699 mmHg 91%
    18:00 +1°C° 0.1 mm 3 mps 699 mmHg 91%
    19:00 0°C° 0.1 mm 4 mps 700 mmHg 91%
    20:00 0°C° 0 mm 4 mps 700 mmHg 89%
    21:00 0°C° 0 mm 4 mps 700 mmHg 87%
    22:00 0°C° 0 mm 5 mps 701 mmHg 85%
    23:00 -1°C° 0 mm 5 mps 701 mmHg 84%

    23 December, Sunday

    Time Temperature Precipitation Wind Pressure Humidity
    00:00 -1°C° 0 mm 4 mps 701 mmHg 84%
    01:00 -1°C° 0 mm 4 mps 701 mmHg 83%
    02:00 -1°C° 0 mm 4 mps 701 mmHg 84%
    03:00 -2°C° 0 mm 4 mps 701 mmHg 85%
    04:00 -1°C° 0 mm 3 mps 701 mmHg 86%
    05:00 -1°C° 0 mm 3 mps 702 mmHg 87%
    06:00 -1°C° 0 mm 3 mps 702 mmHg 87%
    07:00 -1°C° 0 mm 3 mps 702 mmHg 88%
    08:00 0°C° 0 mm 3 mps 702 mmHg 86%
    09:00 -1°C° 0 mm 4 mps 702 mmHg 85%
    10:00 0°C° 0 mm 4 mps 703 mmHg 83%
    11:00 0°C° 0.1 mm 4 mps 703 mmHg 83%
    12:00 0°C° 0.1 mm 4 mps 703 mmHg 82%
    13:00 0°C° 0.1 mm 4 mps 703 mmHg 82%
    14:00 +1°C° 0.1 mm 3 mps 703 mmHg 83%
    15:00 0°C° 0.1 mm 3 mps 703 mmHg 85%
    16:00 0°C° 0.1 mm 3 mps 703 mmHg 87%
    17:00 -1°C° 0.1 mm 3 mps 704 mmHg 87%
    18:00 -1°C° 0.1 mm 3 mps 704 mmHg 87%
    19:00 -1°C° 0.1 mm 3 mps 704 mmHg 87%
    20:00 -1°C° 0.1 mm 3 mps 704 mmHg 87%
    21:00 -1°C° 0.1 mm 3 mps 704 mmHg 87%
    22:00 -1°C° 0.1 mm 3 mps 704 mmHg 87%
    23:00 -1°C° 0.1 mm 3 mps 704 mmHg 87%

    24 December, Monday

    Time Temperature Precipitation Wind Pressure Humidity
    00:00 -1°C° 0.1 mm 3 mps 704 mmHg 87%
    01:00 -1°C° 0.1 mm 3 mps 704 mmHg 87%
    02:00 -1°C° 0.2 mm 3 mps 704 mmHg 87%
    03:00 -2°C° 0.2 mm 2 mps 704 mmHg 88%
    04:00 -2°C° 0.2 mm 2 mps 703 mmHg 88%
    05:00 -2°C° 0.2 mm 3 mps 704 mmHg 89%
    06:00 -2°C° 0.2 mm 3 mps 704 mmHg 89%
    07:00 -2°C° 0.2 mm 3 mps 704 mmHg 90%
    08:00 -3°C° 0.5 mm 4 mps 705 mmHg 89%
    09:00 -3°C° 0.5 mm 4 mps 705 mmHg 88%
    10:00 -4°C° 0.5 mm 5 mps 706 mmHg 87%
    11:00 -4°C° 0.1 mm 5 mps 707 mmHg 85%
    12:00 -4°C° 0.1 mm 5 mps 707 mmHg 82%
    13:00 -3°C° 0.1 mm 4 mps 707 mmHg 79%
    14:00 -2°C° 0 mm 3 mps 708 mmHg 82%
    15:00 -4°C° 0 mm 3 mps 708 mmHg 85%
    16:00 -3°C° 0 mm 2 mps 708 mmHg 87%
    17:00 -3°C° 0.2 mm 2 mps 708 mmHg 89%
    18:00 -3°C° 0.2 mm 2 mps 708 mmHg 90%
    19:00 -3°C° 0.2 mm 2 mps 708 mmHg 91%
    20:00 -2°C° 0.3 mm 2 mps 708 mmHg 91%
    21:00 -2°C° 0.3 mm 2 mps 708 mmHg 92%
    22:00 -2°C° 0.3 mm 2 mps 708 mmHg 92%
    23:00 -2°C° 0.3 mm 2 mps 708 mmHg 92%
    Show more